{"data":{"norad_id":55426,"intl_designator":"2023-014AM","name":"STARLINK-5638","alt_names":[],"object_type":"PAYLOAD","status":"ACTIVE","operator":null,"country":"US","launch_date":"2023-01-31","launch_site_code":"AFWTR","launch_vehicle":null,"mission":null,"orbit_class":"UNKNOWN","rcs_meters":null,"size_class":null,"mass_kg":null,"dimensions":null,"purposes":["comms"],"wikipedia_slug":null,"has_3d_model":false,"image_url":null,"decayed_at":null,"tle_current":{"epoch":"2026-09-20T22:00:03.000096Z","epoch_age_seconds":60706,"freshness":"FRESH","line1":"1 55426U 23014AM  26263.91670139  .00080676  00000+0  54330-2 0  9990","line2":"2 55426  70.0021 312.2702 0003161 324.2988  55.8696 15.06236839  5713","mean_motion":15.06236839,"eccentricity":0.0003161,"inclination_deg":70.0021,"raan_deg":312.2702,"arg_perigee_deg":324.2988,"mean_anomaly_deg":55.8696,"bstar":0.005433,"rev_number":571,"period_min":95.602495086764,"perigee_km":545.52240727997,"apogee_km":549.90092880791,"semimajor_km":6925.8486680439,"source":"CELESTRAK","updated_at":"2026-09-21T09:00:33.221035Z"}}}